Weather History for Wiscasset, ME

Change the Weather History Date:

Thursday, November 15, 2012

  Actual Average Record
Temperature  
Mean Temperature 35 °F -  
Max Temperature 42 °F 43 °F 61 °F (2011)
Min Temperature 28 °F 27 °F 15 °F (1996)
Degree Days  
Heating Degree Days 30    
Moisture  
Dew Point 25 °F    
Average Humidity 70    
Maximum Humidity 85    
Minimum Humidity 49    
Precipitation  
Precipitation 0.00 in - - ()
Sea Level Pressure  
Sea Level Pressure 30.43 in    
Wind  
Wind Speed 2 mph (North)    
Max Wind Speed 6 mph    
Max Gust Speed -    
Visibility 10 miles    
Events      
Averages and records for this station are not official NWS values.
T = Trace of Precipitation, MM = Missing Value Source: NWS Daily Summary

Daily Weather History Graph

Daily Weather History Graph

Search for Another Location

Airport:

Trip Planner

Search our weather history database for the weather conditions in past years. The results will help you decide how hot, cold, wet, or windy it might be!

Date:

Astronomy

Nov. 15, 2012 Rise Set
Actual Time 6:34 AM EST 4:12 PM EST
Civil Twilight 6:03 AM EST 4:43 PM EST
Nautical Twilight 5:28 AM EST 5:18 PM EST
Astronomical Twilight 4:54 AM EST 5:52 PM EST
Moon 8:29 AM EST (11/15) 5:57 PM EST (11/15)
Length of Visible Light 10h 40m
Length of Day
9h 37m
Waxing Crescent, 5% of the Moon is Illuminated
Nov 15
Waxing Crescent
Nov 20
First Quarter
Nov 28
Full
Dec 6
Last Quarter
Dec 13
New

Hourly Weather History & Observations

Time (EST) Temp. Windchill Dew Point Humidity Pressure Visibility Wind Dir Wind Speed Gust Speed Precip Events Conditions
12:53 AM 30.9 °F - 23.0 °F 72% 30.52 in 10.0 mi Calm Calm - N/A   Clear
1:53 AM 30.9 °F 27.5 °F 21.9 °F 69% 30.50 in 10.0 mi Variable 3.5 mph - N/A   Clear
2:53 AM 30.9 °F - 21.9 °F 69% 30.49 in 10.0 mi Calm Calm - N/A   Clear
3:53 AM 30.0 °F - 21.9 °F 72% 30.48 in 10.0 mi Calm Calm - N/A   Clear
4:53 AM 30.0 °F 26.5 °F 21.9 °F 72% 30.50 in 10.0 mi Variable 3.5 mph - N/A   Clear
5:53 AM 30.0 °F 26.5 °F 21.9 °F 72% 30.48 in 10.0 mi Variable 3.5 mph - N/A   Clear
6:53 AM 30.0 °F - 23.0 °F 75% 30.48 in 10.0 mi Calm Calm - N/A   Clear
7:53 AM 32.0 °F - 24.1 °F 73% 30.49 in 10.0 mi Calm Calm - N/A   Clear
8:53 AM 36.0 °F 32.1 °F 25.0 °F 64% 30.49 in 10.0 mi Variable 4.6 mph - N/A   Clear
9:46 AM 35.6 °F 30.7 °F 26.6 °F 70% 30.47 in 10.0 mi North 5.8 mph - N/A   Mostly Cloudy
9:53 AM 37.0 °F 34.5 °F 27.0 °F 67% 30.47 in 10.0 mi Variable 3.5 mph - N/A   Mostly Cloudy
10:40 AM 39.2 °F 35.9 °F 26.6 °F 61% 30.45 in 10.0 mi Variable 4.6 mph - N/A   Scattered Clouds
10:53 AM 39.0 °F 34.8 °F 27.0 °F 62% 30.45 in 10.0 mi Variable 5.8 mph - N/A   Partly Cloudy
11:53 AM 41.0 °F 38.0 °F 27.0 °F 57% 30.41 in 10.0 mi Variable 4.6 mph - N/A   Clear
12:53 PM 42.1 °F 39.2 °F 27.0 °F 55% 30.39 in 10.0 mi Variable 4.6 mph - N/A   Clear
1:53 PM 42.1 °F 39.2 °F 24.1 °F 49% 30.38 in 10.0 mi Variable 4.6 mph - N/A   Clear
2:53 PM 41.0 °F - 25.0 °F 53% 30.37 in 10.0 mi Calm Calm - N/A   Clear
3:53 PM 39.0 °F - 25.0 °F 57% 30.37 in 10.0 mi Calm Calm - N/A   Clear
4:53 PM 33.1 °F - 25.0 °F 72% 30.37 in 10.0 mi Calm Calm - N/A   Clear
5:53 PM 30.0 °F - 25.0 °F 82% 30.37 in 10.0 mi Calm Calm - N/A   Clear
6:53 PM 30.0 °F - 25.0 °F 82% 30.37 in 10.0 mi Calm Calm - N/A   Clear
7:53 PM 28.9 °F - 24.1 °F 82% 30.36 in 10.0 mi Calm Calm - N/A   Clear
8:53 PM 28.9 °F - 25.0 °F 85% 30.36 in 10.0 mi Calm Calm - N/A   Clear
9:53 PM 30.0 °F - 25.0 °F 82% 30.36 in 10.0 mi Calm Calm - N/A   Clear
10:53 PM 30.0 °F - 25.0 °F 82% 30.35 in 10.0 mi Calm Calm - N/A   Clear
11:53 PM 28.9 °F - 25.0 °F 85% 30.34 in 10.0 mi Calm Calm - N/A   Clear